Year,Month,Day,Hour,Minute,Value (Times are PST for windspeed in km/hr)
2016,03,14,00,00,17.40
2016,03,14,00,01,20.50
2016,03,14,00,02,19.10
2016,03,14,00,03,17.80
2016,03,14,00,04,19.90
2016,03,14,00,05,27.50
2016,03,14,00,06,21.60
2016,03,14,00,07,14.70
2016,03,14,00,08,23.10
2016,03,14,00,09,17.20
2016,03,14,00,10,20.50
2016,03,14,00,11,20.00
2016,03,14,00,12,16.80
2016,03,14,00,13,12.70
2016,03,14,00,14,17.10
2016,03,14,00,15,15.70
2016,03,14,00,16,15.80
2016,03,14,00,17,11.30
2016,03,14,00,18,14.20
2016,03,14,00,19,17.40
2016,03,14,00,20,15.70
2016,03,14,00,21,13.50
2016,03,14,00,22,13.00
2016,03,14,00,23,17.80
2016,03,14,00,24,12.00
2016,03,14,00,25,14.60
2016,03,14,00,26,15.30
2016,03,14,00,27,11.20
2016,03,14,00,28,14.00
2016,03,14,00,29,11.90
2016,03,14,00,30,7.60
2016,03,14,00,31,8.50
2016,03,14,00,32,9.30
2016,03,14,00,33,8.50
2016,03,14,00,34,10.50
2016,03,14,00,35,8.60
2016,03,14,00,36,7.80
2016,03,14,00,37,6.80
2016,03,14,00,38,7.40
2016,03,14,00,39,6.00
2016,03,14,00,40,6.70
2016,03,14,00,41,7.70
2016,03,14,00,42,5.40
2016,03,14,00,43,5.80
2016,03,14,00,44,6.60
2016,03,14,00,45,7.30
2016,03,14,00,46,6.70
2016,03,14,00,47,5.40
2016,03,14,00,48,5.50
2016,03,14,00,49,6.50
2016,03,14,00,50,6.20
2016,03,14,00,51,5.90
2016,03,14,00,52,5.20
2016,03,14,00,53,4.20
2016,03,14,00,54,5.40
2016,03,14,00,55,6.00
2016,03,14,00,56,5.90
2016,03,14,00,57,4.50
2016,03,14,00,58,4.80
2016,03,14,00,59,3.80
2016,03,14,01,00,4.40
2016,03,14,01,01,5.60
2016,03,14,01,02,5.10
2016,03,14,01,03,4.90
2016,03,14,01,04,5.50
2016,03,14,01,05,5.60
2016,03,14,01,06,5.80
2016,03,14,01,07,4.90
2016,03,14,01,08,4.60
2016,03,14,01,09,4.40
2016,03,14,01,10,4.80
2016,03,14,01,11,4.40
2016,03,14,01,12,4.80
2016,03,14,01,13,4.70
2016,03,14,01,14,4.40
2016,03,14,01,15,4.30
2016,03,14,01,16,5.70
2016,03,14,01,17,6.70
2016,03,14,01,18,5.60
2016,03,14,01,19,7.50
2016,03,14,01,20,5.40
2016,03,14,01,21,6.40
2016,03,14,01,22,6.10
2016,03,14,01,23,5.00
2016,03,14,01,24,6.30
2016,03,14,01,25,6.40
2016,03,14,01,26,7.30
2016,03,14,01,27,6.70
2016,03,14,01,28,6.80
2016,03,14,01,29,6.70
2016,03,14,01,30,7.00
2016,03,14,01,31,5.80
2016,03,14,01,32,6.00
2016,03,14,01,33,6.90
2016,03,14,01,34,7.50
2016,03,14,01,35,5.00
2016,03,14,01,36,6.50
2016,03,14,01,37,6.10
2016,03,14,01,38,9.00
2016,03,14,01,39,7.70
2016,03,14,01,40,6.60
2016,03,14,01,41,6.10
2016,03,14,01,42,5.70
2016,03,14,01,43,4.60
2016,03,14,01,44,6.00
2016,03,14,01,45,5.00
2016,03,14,01,46,7.00
2016,03,14,01,47,7.30
2016,03,14,01,48,7.00
2016,03,14,01,49,5.70
2016,03,14,01,50,6.10
2016,03,14,01,51,6.60
2016,03,14,01,52,5.30
2016,03,14,01,53,7.10
2016,03,14,01,54,6.00
2016,03,14,01,55,6.70
2016,03,14,01,56,6.30
2016,03,14,01,57,6.80
2016,03,14,01,58,6.40
2016,03,14,01,59,6.50
2016,03,14,02,00,7.90
2016,03,14,02,01,6.90
2016,03,14,02,02,5.80
2016,03,14,02,03,6.70
2016,03,14,02,04,5.40
2016,03,14,02,05,6.70
2016,03,14,02,06,8.50
2016,03,14,02,07,8.20
2016,03,14,02,08,5.70
2016,03,14,02,09,5.20
2016,03,14,02,10,6.20
2016,03,14,02,11,7.00
2016,03,14,02,12,7.30
2016,03,14,02,13,8.70
2016,03,14,02,14,7.10
2016,03,14,02,15,4.70
2016,03,14,02,16,3.70
2016,03,14,02,17,6.20
2016,03,14,02,18,6.10
2016,03,14,02,19,5.80
2016,03,14,02,20,4.30
2016,03,14,02,21,8.00
2016,03,14,02,22,11.60
2016,03,14,02,23,7.10
2016,03,14,02,24,8.90
2016,03,14,02,25,7.60
2016,03,14,02,26,6.00
2016,03,14,02,27,6.60
2016,03,14,02,28,9.70
2016,03,14,02,29,9.20
2016,03,14,02,30,9.80
2016,03,14,02,31,7.20
2016,03,14,02,32,8.30
2016,03,14,02,33,8.90
2016,03,14,02,34,8.10
2016,03,14,02,35,7.10
2016,03,14,02,36,10.90
2016,03,14,02,37,7.20
2016,03,14,02,38,8.60
2016,03,14,02,39,6.00
2016,03,14,02,40,7.10
2016,03,14,02,41,10.80
2016,03,14,02,42,8.50
2016,03,14,02,43,5.00
2016,03,14,02,44,5.40
2016,03,14,02,45,7.90
2016,03,14,02,46,8.60
2016,03,14,02,47,7.10
2016,03,14,02,48,7.60
2016,03,14,02,49,8.60
2016,03,14,02,50,10.00
2016,03,14,02,51,7.30
2016,03,14,02,52,11.40
2016,03,14,02,53,11.70
2016,03,14,02,54,18.20
2016,03,14,02,55,19.50
2016,03,14,02,56,13.60
2016,03,14,02,57,11.00
2016,03,14,02,58,12.70
2016,03,14,02,59,14.30
2016,03,14,03,00,11.10
2016,03,14,03,01,10.00
2016,03,14,03,02,10.10
2016,03,14,03,03,7.70
2016,03,14,03,04,7.80
2016,03,14,03,05,12.10
2016,03,14,03,06,8.50
2016,03,14,03,07,7.40
2016,03,14,03,08,8.10
2016,03,14,03,09,9.30
2016,03,14,03,10,7.40
2016,03,14,03,11,9.20
2016,03,14,03,12,7.00
2016,03,14,03,13,8.70
2016,03,14,03,14,8.80
2016,03,14,03,15,9.00
2016,03,14,03,16,6.50
2016,03,14,03,17,5.20
2016,03,14,03,18,5.50
2016,03,14,03,19,4.10
2016,03,14,03,20,5.40
2016,03,14,03,21,5.70
2016,03,14,03,22,6.60
2016,03,14,03,23,4.30
2016,03,14,03,24,3.90
2016,03,14,03,25,4.30
2016,03,14,03,26,4.90
2016,03,14,03,27,6.00
2016,03,14,03,28,5.50
2016,03,14,03,29,5.00
2016,03,14,03,30,6.20
2016,03,14,03,31,6.00
2016,03,14,03,32,5.20
2016,03,14,03,33,5.00
2016,03,14,03,34,4.80
2016,03,14,03,35,4.90
2016,03,14,03,36,5.20
2016,03,14,03,37,6.70
2016,03,14,03,38,4.00
2016,03,14,03,39,4.50
2016,03,14,03,40,3.10
2016,03,14,03,41,3.40
2016,03,14,03,42,2.90
2016,03,14,03,43,3.30
2016,03,14,03,44,2.40
2016,03,14,03,45,2.20
2016,03,14,03,46,1.50
2016,03,14,03,47,2.80
2016,03,14,03,48,3.50
2016,03,14,03,49,3.80
2016,03,14,03,50,4.40
2016,03,14,03,51,6.80
2016,03,14,03,52,8.30
2016,03,14,03,53,8.50
2016,03,14,03,54,8.70
2016,03,14,03,55,7.50
2016,03,14,03,56,7.80
2016,03,14,03,57,7.60
2016,03,14,03,58,9.10
2016,03,14,03,59,12.30
2016,03,14,04,00,10.50
2016,03,14,04,01,7.10
2016,03,14,04,02,6.60
2016,03,14,04,03,6.50
2016,03,14,04,04,8.40
2016,03,14,04,05,10.10
2016,03,14,04,06,9.40
2016,03,14,04,07,9.20
2016,03,14,04,08,7.30
2016,03,14,04,09,5.40
2016,03,14,04,10,6.30
2016,03,14,04,11,7.20
2016,03,14,04,12,6.00
2016,03,14,04,13,8.30
2016,03,14,04,14,9.60
2016,03,14,04,15,6.90
2016,03,14,04,16,6.20
2016,03,14,04,17,6.60
2016,03,14,04,18,6.80
2016,03,14,04,19,8.30
2016,03,14,04,20,6.30
2016,03,14,04,21,7.30
2016,03,14,04,22,6.70
2016,03,14,04,23,6.10
2016,03,14,04,24,5.50
2016,03,14,04,25,5.60
2016,03,14,04,26,4.90
2016,03,14,04,27,5.60
2016,03,14,04,28,5.20
2016,03,14,04,29,6.70
2016,03,14,04,30,6.40
2016,03,14,04,31,4.80
2016,03,14,04,32,4.60
2016,03,14,04,33,3.20
2016,03,14,04,34,3.70
2016,03,14,04,35,4.90
2016,03,14,04,36,4.70
2016,03,14,04,37,5.10
2016,03,14,04,38,5.70
2016,03,14,04,39,7.00
2016,03,14,04,40,8.10
2016,03,14,04,41,8.30
2016,03,14,04,42,6.00
2016,03,14,04,43,4.50
2016,03,14,04,44,4.90
2016,03,14,04,45,5.20
2016,03,14,04,46,8.60
2016,03,14,04,47,7.00
2016,03,14,04,48,5.90
2016,03,14,04,49,5.70
2016,03,14,04,50,7.70
2016,03,14,04,51,7.00
2016,03,14,04,52,6.70
2016,03,14,04,53,8.00
2016,03,14,04,54,7.40
2016,03,14,04,55,7.40
2016,03,14,04,56,9.10
2016,03,14,04,57,7.80
2016,03,14,04,58,8.20
2016,03,14,04,59,7.70
2016,03,14,05,00,9.90
2016,03,14,05,01,7.10
2016,03,14,05,02,8.20
2016,03,14,05,03,8.10
2016,03,14,05,04,7.20
2016,03,14,05,05,11.90
2016,03,14,05,06,12.90
2016,03,14,05,07,12.80
2016,03,14,05,08,12.40
2016,03,14,05,09,10.20
2016,03,14,05,10,11.30
2016,03,14,05,11,10.30
2016,03,14,05,12,12.00
2016,03,14,05,13,8.80
2016,03,14,05,14,10.40
2016,03,14,05,15,9.80
2016,03,14,05,16,9.70
2016,03,14,05,17,13.10
2016,03,14,05,18,11.70
2016,03,14,05,19,12.70
2016,03,14,05,20,13.70
2016,03,14,05,21,13.80
2016,03,14,05,22,17.30
2016,03,14,05,23,15.50
2016,03,14,05,24,13.80
2016,03,14,05,25,11.80
2016,03,14,05,26,17.70
2016,03,14,05,27,13.60
2016,03,14,05,28,10.50
2016,03,14,05,29,10.30
2016,03,14,05,30,11.10
2016,03,14,05,31,10.00
2016,03,14,05,32,10.10
2016,03,14,05,33,8.30
2016,03,14,05,34,8.10
2016,03,14,05,35,7.30
2016,03,14,05,36,7.20
2016,03,14,05,37,8.40
2016,03,14,05,38,7.50
2016,03,14,05,39,6.00
2016,03,14,05,40,6.00
2016,03,14,05,41,10.40
2016,03,14,05,42,8.20
2016,03,14,05,43,11.50
2016,03,14,05,44,8.10
2016,03,14,05,45,8.00
2016,03,14,05,46,6.60
2016,03,14,05,47,8.00
2016,03,14,05,48,8.30
2016,03,14,05,49,10.20
2016,03,14,05,50,6.50
2016,03,14,05,51,7.20
2016,03,14,05,52,14.50
2016,03,14,05,53,9.00
2016,03,14,05,54,8.10
2016,03,14,05,55,7.50
2016,03,14,05,56,7.10
2016,03,14,05,57,10.10
2016,03,14,05,58,8.30
2016,03,14,05,59,7.90
2016,03,14,06,00,7.00
2016,03,14,06,01,5.40
2016,03,14,06,02,6.60
2016,03,14,06,03,6.50
2016,03,14,06,04,6.80
2016,03,14,06,05,5.30
2016,03,14,06,06,6.70
2016,03,14,06,07,6.80
2016,03,14,06,08,8.30
2016,03,14,06,09,7.80
2016,03,14,06,10,9.00
2016,03,14,06,11,11.10
2016,03,14,06,12,11.40
2016,03,14,06,13,7.40
2016,03,14,06,14,7.00
2016,03,14,06,15,5.40
2016,03,14,06,16,6.00
2016,03,14,06,17,6.50
2016,03,14,06,18,5.40
2016,03,14,06,19,4.80
2016,03,14,06,20,5.70
2016,03,14,06,21,9.70
2016,03,14,06,22,11.50
2016,03,14,06,23,7.30
2016,03,14,06,24,6.40
2016,03,14,06,25,7.60
2016,03,14,06,26,7.60
2016,03,14,06,27,10.00
2016,03,14,06,28,10.50
2016,03,14,06,29,8.70
2016,03,14,06,30,8.70
2016,03,14,06,31,5.80
2016,03,14,06,32,5.50
2016,03,14,06,33,6.90
2016,03,14,06,34,5.10
2016,03,14,06,35,3.30
2016,03,14,06,36,4.80
2016,03,14,06,37,6.90
2016,03,14,06,38,5.70
2016,03,14,06,39,5.10
2016,03,14,06,40,7.80
2016,03,14,06,41,7.70
2016,03,14,06,42,7.30
2016,03,14,06,43,7.70
2016,03,14,06,44,6.50
2016,03,14,06,45,7.20
2016,03,14,06,46,5.40
2016,03,14,06,47,6.70
2016,03,14,06,48,5.20
2016,03,14,06,49,5.70
2016,03,14,06,50,6.60
2016,03,14,06,51,6.00
2016,03,14,06,52,5.50
2016,03,14,06,53,4.20
2016,03,14,06,54,4.90
2016,03,14,06,55,3.80
2016,03,14,06,56,4.50
2016,03,14,06,57,4.00
2016,03,14,06,58,4.00
2016,03,14,06,59,3.10
2016,03,14,07,00,3.10
2016,03,14,07,01,2.60
2016,03,14,07,02,2.20
2016,03,14,07,03,2.20
2016,03,14,07,04,2.70
2016,03,14,07,05,2.30
2016,03,14,07,06,3.10
2016,03,14,07,07,4.30
2016,03,14,07,08,2.00
2016,03,14,07,09,4.40
2016,03,14,07,10,5.40
2016,03,14,07,11,9.10
2016,03,14,07,12,7.40
2016,03,14,07,13,5.90
2016,03,14,07,14,4.90
2016,03,14,07,15,6.10
2016,03,14,07,16,5.50
2016,03,14,07,17,3.10
2016,03,14,07,18,3.40
2016,03,14,07,19,6.40
2016,03,14,07,20,6.20
2016,03,14,07,21,4.40
2016,03,14,07,22,2.70
2016,03,14,07,23,2.10
2016,03,14,07,24,0.00
2016,03,14,07,25,0.80
2016,03,14,07,26,0.00
2016,03,14,07,27,1.70
2016,03,14,07,28,2.70
2016,03,14,07,29,2.20
2016,03,14,07,30,1.40
2016,03,14,07,31,1.80
2016,03,14,07,32,1.60
2016,03,14,07,33,0.10
2016,03,14,07,34,0.10
2016,03,14,07,35,0.10
2016,03,14,07,36,0.00
2016,03,14,07,37,0.50
2016,03,14,07,38,0.30
2016,03,14,07,39,0.30
2016,03,14,07,40,0.20
2016,03,14,07,41,0.10
2016,03,14,07,42,0.60
2016,03,14,07,43,0.60
2016,03,14,07,44,0.00
2016,03,14,07,45,0.50
2016,03,14,07,46,0.70
2016,03,14,07,47,2.00
2016,03,14,07,48,1.80
2016,03,14,07,49,1.90
2016,03,14,07,50,1.20
2016,03,14,07,51,0.40
2016,03,14,07,52,0.50
2016,03,14,07,53,0.40
2016,03,14,07,54,0.80
2016,03,14,07,55,1.10
2016,03,14,07,56,0.60
2016,03,14,07,57,1.20
2016,03,14,07,58,1.10
2016,03,14,07,59,0.70
2016,03,14,08,00,0.00
2016,03,14,08,01,0.20
2016,03,14,08,02,1.30
2016,03,14,08,03,1.60
2016,03,14,08,04,1.50
2016,03,14,08,05,1.10
2016,03,14,08,06,0.90
2016,03,14,08,07,1.60
2016,03,14,08,08,1.90
2016,03,14,08,09,1.80
2016,03,14,08,10,1.30
2016,03,14,08,11,1.30
2016,03,14,08,12,1.50
2016,03,14,08,13,2.10
2016,03,14,08,14,1.60
2016,03,14,08,15,1.80
2016,03,14,08,16,1.90
2016,03,14,08,17,2.40
2016,03,14,08,18,2.60
2016,03,14,08,19,2.80
2016,03,14,08,20,3.30
2016,03,14,08,21,3.00
2016,03,14,08,22,2.50
2016,03,14,08,23,2.00
2016,03,14,08,24,2.50
2016,03,14,08,25,2.30
2016,03,14,08,26,2.70
2016,03,14,08,27,3.30
2016,03,14,08,28,4.80
2016,03,14,08,29,6.20
2016,03,14,08,30,5.50
2016,03,14,08,31,5.70
2016,03,14,08,32,3.80
2016,03,14,08,33,4.00
2016,03,14,08,34,4.00
2016,03,14,08,35,2.80
2016,03,14,08,36,3.60
2016,03,14,08,37,3.00
2016,03,14,08,38,4.10
2016,03,14,08,39,3.40
2016,03,14,08,40,5.30
2016,03,14,08,41,3.70
2016,03,14,08,42,2.60
2016,03,14,08,43,3.30
2016,03,14,08,44,3.60
2016,03,14,08,45,3.90
2016,03,14,08,46,3.70
2016,03,14,08,47,4.40
2016,03,14,08,48,3.70
2016,03,14,08,49,4.50
2016,03,14,08,50,3.30
2016,03,14,08,51,2.80
2016,03,14,08,52,4.00
2016,03,14,08,53,3.80
2016,03,14,08,54,2.40
2016,03,14,08,55,2.50
2016,03,14,08,56,2.30
2016,03,14,08,57,2.70
2016,03,14,08,58,3.10
2016,03,14,08,59,2.70
2016,03,14,09,00,2.90
2016,03,14,09,01,3.10
2016,03,14,09,02,2.10
2016,03,14,09,03,2.70
2016,03,14,09,04,2.80
2016,03,14,09,05,3.00
2016,03,14,09,06,3.10
2016,03,14,09,07,3.10
2016,03,14,09,08,4.20
2016,03,14,09,09,2.40
2016,03,14,09,10,2.80
2016,03,14,09,11,3.60
2016,03,14,09,12,4.10
2016,03,14,09,13,4.60
2016,03,14,09,14,4.50
2016,03,14,09,15,3.80
2016,03,14,09,16,4.20
2016,03,14,09,17,4.70
2016,03,14,09,18,4.70
2016,03,14,09,19,5.40
2016,03,14,09,20,6.10
2016,03,14,09,21,6.00
2016,03,14,09,22,6.00
2016,03,14,09,23,5.30
2016,03,14,09,24,5.80
2016,03,14,09,25,6.40
2016,03,14,09,26,5.60
2016,03,14,09,27,5.50
2016,03,14,09,28,5.30
2016,03,14,09,29,8.50
2016,03,14,09,30,7.10
2016,03,14,09,31,9.70
2016,03,14,09,32,8.20
2016,03,14,09,33,7.80
2016,03,14,09,34,5.00
2016,03,14,09,35,6.30
2016,03,14,09,36,6.00
2016,03,14,09,37,6.30
2016,03,14,09,38,5.60
2016,03,14,09,39,5.30
2016,03,14,09,40,6.20
2016,03,14,09,41,7.80
2016,03,14,09,42,6.20
2016,03,14,09,43,7.00
2016,03,14,09,44,4.70
2016,03,14,09,45,4.70
2016,03,14,09,46,5.10
2016,03,14,09,47,5.70
2016,03,14,09,48,5.40
2016,03,14,09,49,6.60
2016,03,14,09,50,5.60
2016,03,14,09,51,6.10
2016,03,14,09,52,5.40
2016,03,14,09,53,5.20
2016,03,14,09,54,5.30
2016,03,14,09,55,5.20
2016,03,14,09,56,5.80
2016,03,14,09,57,6.00
2016,03,14,09,58,6.20
2016,03,14,09,59,7.20
2016,03,14,10,00,5.60
2016,03,14,10,01,5.40
2016,03,14,10,02,4.80
2016,03,14,10,03,5.20
2016,03,14,10,04,4.00
2016,03,14,10,05,5.10
2016,03,14,10,06,6.00
2016,03,14,10,07,6.00
2016,03,14,10,08,4.80
2016,03,14,10,09,4.10
2016,03,14,10,10,4.30
2016,03,14,10,11,6.70
2016,03,14,10,12,6.80
2016,03,14,10,13,8.90
2016,03,14,10,14,9.10
2016,03,14,10,15,8.40
2016,03,14,10,16,8.10
2016,03,14,10,17,6.20
2016,03,14,10,18,6.50
2016,03,14,10,19,4.20
2016,03,14,10,20,4.90
2016,03,14,10,21,6.60
2016,03,14,10,22,6.10
2016,03,14,10,23,5.50
2016,03,14,10,24,5.90
2016,03,14,10,25,5.20
2016,03,14,10,26,4.80
2016,03,14,10,27,5.00
2016,03,14,10,28,6.00
2016,03,14,10,29,6.10
2016,03,14,10,30,7.00
2016,03,14,10,31,6.00
2016,03,14,10,32,6.00
2016,03,14,10,33,6.90
2016,03,14,10,34,5.90
2016,03,14,10,35,5.90
2016,03,14,10,36,6.80
2016,03,14,10,37,12.50
2016,03,14,10,38,10.80
2016,03,14,10,39,8.90
2016,03,14,10,40,8.50
2016,03,14,10,41,10.40
2016,03,14,10,42,6.60
2016,03,14,10,43,8.30
2016,03,14,10,44,14.80
2016,03,14,10,45,9.30
2016,03,14,10,46,8.30
2016,03,14,10,47,9.90
2016,03,14,10,48,7.50
2016,03,14,10,49,9.30
2016,03,14,10,50,10.80
2016,03,14,10,51,11.60
2016,03,14,10,52,10.30
2016,03,14,10,53,12.00
2016,03,14,10,54,10.10
2016,03,14,10,55,16.00
2016,03,14,10,56,14.40
2016,03,14,10,57,12.10
2016,03,14,10,58,7.80
2016,03,14,10,59,8.70
2016,03,14,11,00,11.00
2016,03,14,11,01,12.00
2016,03,14,11,02,15.60
2016,03,14,11,03,16.10
2016,03,14,11,04,13.50
2016,03,14,11,05,10.30
2016,03,14,11,06,12.10
2016,03,14,11,07,8.10
2016,03,14,11,08,10.20
2016,03,14,11,09,9.50
2016,03,14,11,10,9.80
2016,03,14,11,11,7.30
2016,03,14,11,12,7.70
2016,03,14,11,13,7.70
2016,03,14,11,14,7.50
2016,03,14,11,15,8.10
2016,03,14,11,16,7.20
2016,03,14,11,17,7.00
2016,03,14,11,18,7.80
2016,03,14,11,19,9.70
2016,03,14,11,20,7.80
2016,03,14,11,21,8.70
2016,03,14,11,22,8.90
2016,03,14,11,23,9.70
2016,03,14,11,24,8.40
2016,03,14,11,25,9.50
2016,03,14,11,26,10.30
2016,03,14,11,27,9.20
2016,03,14,11,28,8.80
2016,03,14,11,29,10.50
2016,03,14,11,30,7.60
2016,03,14,11,31,9.20
2016,03,14,11,32,11.20
2016,03,14,11,33,9.20
2016,03,14,11,34,6.80
2016,03,14,11,35,9.50
2016,03,14,11,36,11.30
2016,03,14,11,37,10.50
2016,03,14,11,38,6.00
2016,03,14,11,39,5.30
2016,03,14,11,40,4.70
2016,03,14,11,41,6.10
2016,03,14,11,42,8.20
2016,03,14,11,43,8.50
2016,03,14,11,44,10.10
2016,03,14,11,45,5.40
2016,03,14,11,46,5.90
2016,03,14,11,47,6.40
2016,03,14,11,48,9.60
2016,03,14,11,49,7.80
2016,03,14,11,50,8.00
2016,03,14,11,51,10.00
2016,03,14,11,52,8.50
2016,03,14,11,53,7.00
2016,03,14,11,54,5.70
2016,03,14,11,55,6.30
2016,03,14,11,56,5.00
2016,03,14,11,57,8.90
2016,03,14,11,58,5.90
2016,03,14,11,59,4.60
2016,03,14,12,00,5.40
2016,03,14,12,01,6.00
2016,03,14,12,02,3.90
2016,03,14,12,03,4.50
2016,03,14,12,04,5.20
2016,03,14,12,05,2.60
2016,03,14,12,06,2.30
2016,03,14,12,07,7.40
2016,03,14,12,08,7.00
2016,03,14,12,09,6.10
2016,03,14,12,10,5.30
2016,03,14,12,11,2.40
2016,03,14,12,12,7.10
2016,03,14,12,13,5.40
2016,03,14,12,14,7.70
2016,03,14,12,15,9.20
2016,03,14,12,16,10.10
2016,03,14,12,17,11.30
2016,03,14,12,18,7.30
2016,03,14,12,19,10.50
2016,03,14,12,20,9.10
2016,03,14,12,21,7.30
2016,03,14,12,22,7.70
2016,03,14,12,23,5.70
2016,03,14,12,24,5.40
2016,03,14,12,25,3.50
2016,03,14,12,26,6.10
2016,03,14,12,27,7.40
2016,03,14,12,28,8.80
2016,03,14,12,29,8.50
2016,03,14,12,30,8.40
2016,03,14,12,31,6.90
2016,03,14,12,32,5.30
2016,03,14,12,33,3.30
2016,03,14,12,34,2.60
2016,03,14,12,35,5.30
2016,03,14,12,36,3.20
2016,03,14,12,37,5.70
2016,03,14,12,38,3.90
2016,03,14,12,39,2.50
2016,03,14,12,40,4.20
2016,03,14,12,41,5.30
2016,03,14,12,42,6.50
2016,03,14,12,43,4.90
2016,03,14,12,44,3.70
2016,03,14,12,45,3.50
2016,03,14,12,46,6.90
2016,03,14,12,47,6.50
2016,03,14,12,48,6.90
2016,03,14,12,49,5.00
2016,03,14,12,50,2.90
2016,03,14,12,51,1.20
2016,03,14,12,52,1.60
2016,03,14,12,53,2.50
2016,03,14,12,54,4.30
2016,03,14,12,55,5.10
2016,03,14,12,56,2.90
2016,03,14,12,57,3.40
2016,03,14,12,58,2.90
2016,03,14,12,59,3.80
2016,03,14,13,00,3.90
2016,03,14,13,01,2.00
2016,03,14,13,02,1.80
2016,03,14,13,03,1.70
2016,03,14,13,04,5.90
2016,03,14,13,05,8.60
2016,03,14,13,06,2.30
2016,03,14,13,07,3.80
2016,03,14,13,08,11.90
2016,03,14,13,09,8.60
2016,03,14,13,10,14.30
2016,03,14,13,11,7.20
2016,03,14,13,12,6.90
2016,03,14,13,13,7.10
2016,03,14,13,14,6.00
2016,03,14,13,15,3.80
2016,03,14,13,16,3.90
2016,03,14,13,17,4.40
2016,03,14,13,18,3.60
2016,03,14,13,19,7.20
2016,03,14,13,20,6.80
2016,03,14,13,21,7.70
2016,03,14,13,22,5.60
2016,03,14,13,23,3.90
2016,03,14,13,24,5.70
2016,03,14,13,25,4.00
2016,03,14,13,26,5.70
2016,03,14,13,27,9.20
2016,03,14,13,28,6.60
2016,03,14,13,29,4.40
2016,03,14,13,30,4.10
2016,03,14,13,31,3.80
2016,03,14,13,32,6.00
2016,03,14,13,33,6.00
2016,03,14,13,34,8.60
2016,03,14,13,35,7.90
2016,03,14,13,36,4.70
2016,03,14,13,37,2.90
2016,03,14,13,38,8.00
2016,03,14,13,39,4.20
2016,03,14,13,40,7.40
2016,03,14,13,41,7.40
2016,03,14,13,42,2.70
2016,03,14,13,43,4.10
2016,03,14,13,44,4.00
2016,03,14,13,45,3.70
2016,03,14,13,46,6.00
2016,03,14,13,47,13.90
2016,03,14,13,48,8.80
2016,03,14,13,49,4.70
2016,03,14,13,50,2.40
2016,03,14,13,51,2.90
2016,03,14,13,52,3.10
2016,03,14,13,53,7.90
2016,03,14,13,54,5.60
2016,03,14,13,55,4.30
2016,03,14,13,56,7.90
2016,03,14,13,57,5.70
2016,03,14,13,58,8.20
2016,03,14,13,59,8.50
2016,03,14,14,00,16.00
2016,03,14,14,01,11.80
2016,03,14,14,02,8.20
2016,03,14,14,03,13.70
2016,03,14,14,04,17.40
2016,03,14,14,05,21.30
2016,03,14,14,06,15.50
2016,03,14,14,07,14.70
2016,03,14,14,08,15.30
2016,03,14,14,09,14.10
2016,03,14,14,10,11.30
2016,03,14,14,11,9.80
2016,03,14,14,12,9.70
2016,03,14,14,13,15.10
2016,03,14,14,14,13.10
2016,03,14,14,15,10.50
2016,03,14,14,16,12.90
2016,03,14,14,17,9.60
2016,03,14,14,18,16.60
2016,03,14,14,19,12.70
2016,03,14,14,20,14.20
2016,03,14,14,21,13.90
2016,03,14,14,22,14.70
2016,03,14,14,23,12.60
2016,03,14,14,24,9.70
2016,03,14,14,25,13.30
2016,03,14,14,26,10.70
2016,03,14,14,27,12.10
2016,03,14,14,28,12.00
2016,03,14,14,29,13.90
2016,03,14,14,30,18.80
2016,03,14,14,31,15.90
2016,03,14,14,32,15.10
2016,03,14,14,33,9.70
2016,03,14,14,34,14.80
2016,03,14,14,35,12.00
2016,03,14,14,36,11.70
2016,03,14,14,37,14.50
2016,03,14,14,38,15.50
2016,03,14,14,39,16.70
2016,03,14,14,40,15.90
2016,03,14,14,41,9.70
2016,03,14,14,42,11.40
2016,03,14,14,43,13.90
2016,03,14,14,44,12.00
2016,03,14,14,45,13.50
2016,03,14,14,46,11.70
2016,03,14,14,47,15.90
2016,03,14,14,48,18.10
2016,03,14,14,49,17.60
2016,03,14,14,50,17.40
2016,03,14,14,51,15.80
2016,03,14,14,52,9.90
2016,03,14,14,53,11.80
2016,03,14,14,54,16.00
2016,03,14,14,55,25.50
2016,03,14,14,56,20.70
2016,03,14,14,57,18.80
2016,03,14,14,58,16.40
2016,03,14,14,59,15.80
2016,03,14,15,00,14.30
2016,03,14,15,01,12.10
2016,03,14,15,02,15.20
2016,03,14,15,03,12.10
2016,03,14,15,04,9.90
2016,03,14,15,05,11.20
2016,03,14,15,06,14.50
2016,03,14,15,07,12.00
2016,03,14,15,08,11.70
2016,03,14,15,09,11.80
2016,03,14,15,10,15.20
2016,03,14,15,11,12.40
2016,03,14,15,12,11.70
2016,03,14,15,13,9.70
2016,03,14,15,14,15.50
2016,03,14,15,15,14.80
2016,03,14,15,16,9.40
2016,03,14,15,17,9.20
2016,03,14,15,18,13.10
2016,03,14,15,19,19.10
2016,03,14,15,20,15.00
2016,03,14,15,21,9.10
2016,03,14,15,22,13.70
2016,03,14,15,23,13.40
2016,03,14,15,24,13.30
2016,03,14,15,25,13.30
2016,03,14,15,26,18.70
2016,03,14,15,27,11.10
2016,03,14,15,28,14.10
2016,03,14,15,29,15.80
2016,03,14,15,30,13.90
2016,03,14,15,31,19.60
2016,03,14,15,32,18.60
2016,03,14,15,33,17.50
2016,03,14,15,34,14.30
2016,03,14,15,35,14.90
2016,03,14,15,36,15.40
2016,03,14,15,37,15.00
2016,03,14,15,38,18.50
2016,03,14,15,39,15.80
2016,03,14,15,40,15.10
2016,03,14,15,41,12.30
2016,03,14,15,42,11.80
2016,03,14,15,43,11.50
2016,03,14,15,44,12.80
2016,03,14,15,45,16.20
2016,03,14,15,46,13.40
2016,03,14,15,47,13.90
2016,03,14,15,48,11.80
2016,03,14,15,49,9.50
2016,03,14,15,50,13.00
2016,03,14,15,51,11.80
2016,03,14,15,52,13.30
2016,03,14,15,53,16.30
2016,03,14,15,54,11.90
2016,03,14,15,55,15.70
2016,03,14,15,56,15.90
2016,03,14,15,57,15.00
2016,03,14,15,58,10.70
2016,03,14,15,59,10.30
2016,03,14,16,00,12.60
2016,03,14,16,01,10.50
2016,03,14,16,02,15.40
2016,03,14,16,03,12.70
2016,03,14,16,04,12.90
2016,03,14,16,05,13.30
2016,03,14,16,06,10.40
2016,03,14,16,07,8.00
2016,03,14,16,08,9.30
2016,03,14,16,09,9.10
2016,03,14,16,10,8.90
2016,03,14,16,11,10.60
2016,03,14,16,12,9.70
2016,03,14,16,13,10.80
2016,03,14,16,14,13.60
2016,03,14,16,15,11.80
2016,03,14,16,16,9.10
2016,03,14,16,17,8.90
2016,03,14,16,18,11.80
2016,03,14,16,19,15.50
2016,03,14,16,20,15.10
2016,03,14,16,21,15.90
2016,03,14,16,22,14.90
2016,03,14,16,23,20.80
2016,03,14,16,24,17.60
2016,03,14,16,25,16.90
2016,03,14,16,26,19.10
2016,03,14,16,27,13.10
2016,03,14,16,28,14.10
2016,03,14,16,29,14.00
2016,03,14,16,30,12.70
2016,03,14,16,31,10.10
2016,03,14,16,32,11.30
2016,03,14,16,33,15.50
2016,03,14,16,34,18.90
2016,03,14,16,35,19.90
2016,03,14,16,36,15.50
2016,03,14,16,37,17.10
2016,03,14,16,38,12.10
2016,03,14,16,39,11.90
2016,03,14,16,40,17.60
2016,03,14,16,41,23.90
2016,03,14,16,42,18.60
2016,03,14,16,43,17.60
2016,03,14,16,44,15.50
2016,03,14,16,45,19.70
2016,03,14,16,46,18.10
2016,03,14,16,47,20.70
2016,03,14,16,48,21.00
2016,03,14,16,49,13.20
2016,03,14,16,50,13.00
2016,03,14,16,51,18.10
2016,03,14,16,52,20.00
2016,03,14,16,53,23.10
2016,03,14,16,54,14.10
2016,03,14,16,55,11.40
2016,03,14,16,56,19.50
2016,03,14,16,57,20.20
2016,03,14,16,58,21.80
2016,03,14,16,59,21.10
2016,03,14,17,00,18.50
2016,03,14,17,01,18.10
2016,03,14,17,02,19.40
2016,03,14,17,03,21.70
2016,03,14,17,04,23.40
2016,03,14,17,05,18.70
2016,03,14,17,06,19.60
2016,03,14,17,07,19.80
2016,03,14,17,08,22.20
2016,03,14,17,09,22.00
2016,03,14,17,10,22.20
2016,03,14,17,11,19.20
2016,03,14,17,12,17.70
2016,03,14,17,13,18.90
2016,03,14,17,14,23.00
2016,03,14,17,15,23.10
2016,03,14,17,16,18.90
2016,03,14,17,17,18.10
2016,03,14,17,18,18.70
2016,03,14,17,19,15.60
2016,03,14,17,20,13.60
2016,03,14,17,21,17.20
2016,03,14,17,22,17.80
2016,03,14,17,23,13.60
2016,03,14,17,24,11.40
2016,03,14,17,25,19.20
2016,03,14,17,26,22.70
2016,03,14,17,27,21.10
2016,03,14,17,28,16.60
2016,03,14,17,29,18.90
2016,03,14,17,30,16.20
2016,03,14,17,31,19.70
2016,03,14,17,32,20.20
2016,03,14,17,33,19.80
2016,03,14,17,34,15.50
2016,03,14,17,35,14.50
2016,03,14,17,36,15.10
2016,03,14,17,37,16.70
2016,03,14,17,38,20.80
2016,03,14,17,39,21.90
2016,03,14,17,40,18.40
2016,03,14,17,41,19.80
2016,03,14,17,42,16.40
2016,03,14,17,43,15.10
2016,03,14,17,44,14.10
2016,03,14,17,45,18.00
2016,03,14,17,46,13.60
2016,03,14,17,47,17.80
2016,03,14,17,48,16.30
2016,03,14,17,49,20.50
2016,03,14,17,50,19.30
2016,03,14,17,51,18.90